| time (UTC) | temp F | wind direction | speed MPH | gust MPH | rain 1hr in | rain 24hr in | rain mn in | humidity % | barometer mb |
| 20260510230629 | 75 | 318 | 0.0 | 2.0 | 0.00 | 0.00 | 0.00 | 56 | 1007.4 |
| 20260510230143 | 75 | 318 | 1.0 | 2.0 | 0.00 | 0.00 | 0.00 | 55 | 1007.4 |
| 20260510225636 | 76 | 318 | 0.0 | 3.0 | 0.00 | 0.00 | 0.00 | 56 | 1007.2 |
| 20260510225132 | 76 | 317 | 0.0 | 3.0 | 0.00 | 0.00 | 0.00 | 54 | 1007.2 |
| 20260510224627 | 76 | 337 | 0.0 | 0.0 | 0.00 | 0.00 | 0.00 | 55 | 1007.2 |
| 20260510224122 | 77 | 337 | 0.0 | 5.0 | 0.00 | 0.00 | 0.00 | 54 | 1007.2 |
| 20260510223621 | 77 | 349 | 0.0 | 3.0 | 0.00 | 0.00 | 0.00 | 52 | 1007.2 |
| 20260510223155 | 78 | 350 | 0.0 | 3.0 | 0.00 | 0.00 | 0.00 | 52 | 1007.2 |
| 20260510222741 | 78 | 328 | 1.0 | 4.0 | 0.00 | 0.00 | 0.00 | 51 | 1007.2 |
| 20260510222128 | 79 | 15 | 1.0 | 4.0 | 0.00 | 0.00 | 0.00 | 51 | 1007.2 |
| 20260510221624 | 79 | 65 | 0.0 | 3.0 | 0.00 | 0.00 | 0.00 | 51 | 1007.2 |
| 20260510221122 | 79 | 57 | 0.0 | 3.0 | 0.00 | 0.00 | 0.00 | 51 | 1007.3 |
| 20260510220616 | 79 | 22 | 0.0 | 1.0 | 0.00 | 0.00 | 0.00 | 52 | 1007.3 |
| 20260510220133 | 79 | 336 | 0.0 | 3.0 | 0.00 | 0.00 | 0.00 | 50 | 1007.3 |
| 20260510215652 | 80 | 360 | 0.0 | 3.0 | 0.00 | 0.00 | 0.00 | 50 | 1007.3 |
| 20260510215136 | 79 | 69 | 0.0 | 0.0 | 0.00 | 0.00 | 0.00 | 50 | 1007.3 |
| 20260510214635 | 79 | 80 | 0.0 | 4.0 | 0.00 | 0.00 | 0.00 | 50 | 1007.3 |
| 20260510214129 | 79 | 76 | 1.0 | 4.0 | 0.00 | 0.00 | 0.00 | 51 | 1007.5 |
| 20260510213624 | 79 | 67 | 0.0 | 5.0 | 0.00 | 0.00 | 0.00 | 51 | 1007.5 |
| 20260510213144 | 78 | 39 | 0.0 | 5.0 | 0.00 | 0.00 | 0.00 | 53 | 1007.5 |
| 20260510212635 | 77 | 336 | 0.0 | 4.0 | 0.00 | 0.00 | 0.00 | 52 | 1007.6 |
| 20260510212131 | 77 | 68 | 1.0 | 4.0 | 0.00 | 0.00 | 0.00 | 55 | 1007.6 |
| 20260510211625 | 77 | 310 | 0.0 | 4.0 | 0.00 | 0.00 | 0.00 | 55 | 1007.6 |
| 20260510211119 | 77 | 309 | 1.0 | 5.0 | 0.00 | 0.00 | 0.00 | 52 | 1007.6 |
| 20260510210636 | 77 | 63 | 0.0 | 5.0 | 0.00 | 0.00 | 0.00 | 54 | 1007.6 |
| 20260510210131 | 78 | 320 | 0.0 | 6.0 | 0.00 | 0.00 | 0.00 | 50 | 1007.6 |
| 20260510205630 | 79 | 74 | 1.0 | 6.0 | 0.00 | 0.00 | 0.00 | 51 | 1007.6 |
| 20260510205125 | 79 | 67 | 2.0 | 7.0 | 0.00 | 0.00 | 0.00 | 51 | 1007.6 |
| 20260510204621 | 79 | 73 | 0.0 | 7.0 | 0.00 | 0.00 | 0.00 | 51 | 1007.6 |
| 20260510204136 | 78 | 59 | 0.0 | 0.0 | 0.00 | 0.00 | 0.00 | 51 | 1007.7 |
| 20260510203631 | 78 | 55 | 0.0 | 3.0 | 0.00 | 0.00 | 0.00 | 52 | 1007.7 |
| 20260510203159 | 79 | 56 | 0.0 | 3.0 | 0.00 | 0.00 | 0.00 | 51 | 1007.7 |
| 20260510202651 | 80 | 59 | 0.0 | 5.0 | 0.00 | 0.00 | 0.00 | 49 | 1007.7 |
| 20260510202125 | 80 | 59 | 0.0 | 6.0 | 0.00 | 0.00 | 0.00 | 49 | 1007.7 |
| 20260510201640 | 80 | 74 | 0.0 | 6.0 | 0.00 | 0.00 | 0.00 | 50 | 1007.7 |
| 20260510201135 | 79 | 84 | 0.0 | 4.0 | 0.00 | 0.00 | 0.00 | 50 | 1007.8 |
| 20260510200631 | 79 | 59 | 0.0 | 7.0 | 0.00 | 0.00 | 0.00 | 49 | 1007.8 |
| 20260510200125 | 80 | 60 | 4.0 | 7.0 | 0.00 | 0.00 | 0.00 | 50 | 1007.8 |
| 20260510195729 | 79 | 64 | 0.0 | 6.0 | 0.00 | 0.00 | 0.00 | 51 | 1007.8 |
| 20260510195149 | 78 | 82 | 3.0 | 6.0 | 0.00 | 0.00 | 0.00 | 53 | 1007.8 |
| 20260510194632 | 79 | 55 | 0.0 | 6.0 | 0.00 | 0.00 | 0.00 | 52 | 1007.8 |
| 20260510194231 | 80 | 56 | 0.0 | 6.0 | 0.00 | 0.00 | 0.00 | 51 | 1007.8 |
| 20260510193659 | 79 | 67 | 0.0 | 6.0 | 0.00 | 0.00 | 0.00 | 51 | 1007.8 |
| 20260510193115 | 79 | 53 | 0.0 | 7.0 | 0.00 | 0.00 | 0.00 | 52 | 1007.8 |
| 20260510192632 | 78 | 69 | 3.0 | 7.0 | 0.00 | 0.00 | 0.00 | 53 | 1007.9 |
| 20260510192126 | 78 | 80 | 1.0 | 5.0 | 0.00 | 0.00 | 0.00 | 53 | 1007.9 |
| 20260510191620 | 78 | 329 | 0.0 | 5.0 | 0.00 | 0.00 | 0.00 | 52 | 1007.9 |
| 20260510191139 | 78 | 324 | 0.0 | 5.0 | 0.00 | 0.00 | 0.00 | 53 | 1007.9 |
| 20260510190614 | 79 | 86 | 0.0 | 7.0 | 0.00 | 0.00 | 0.00 | 52 | 1007.9 |
| 20260510190130 | 78 | 87 | 2.0 | 7.0 | 0.00 | 0.00 | 0.00 | 52 | 1007.9 |
| 20260510185625 | 78 | 71 | 0.0 | 5.0 | 0.00 | 0.00 | 0.00 | 53 | 1007.9 |
| 20260510185141 | 77 | 67 | 0.0 | 5.0 | 0.00 | 0.00 | 0.00 | 55 | 1007.9 |
| 20260510184634 | 77 | 69 | 0.0 | 5.0 | 0.00 | 0.00 | 0.00 | 55 | 1007.9 |
| 20260510184142 | 77 | 69 | 0.0 | 6.0 | 0.00 | 0.00 | 0.00 | 53 | 1008.0 |
| 20260510183633 | 77 | 69 | 3.0 | 7.0 | 0.00 | 0.00 | 0.00 | 54 | 1008.0 |
| 20260510183118 | 76 | 65 | 5.0 | 7.0 | 0.00 | 0.00 | 0.00 | 56 | 1008.0 |
| 20260510182616 | 75 | 84 | 0.0 | 4.0 | 0.00 | 0.00 | 0.00 | 57 | 1008.0 |
| 20260510182135 | 75 | 88 | 0.0 | 6.0 | 0.00 | 0.00 | 0.00 | 55 | 1008.0 |
| 20260510181629 | 76 | 84 | 3.0 | 6.0 | 0.00 | 0.00 | 0.00 | 56 | 1008.0 |
| 20260510181141 | 75 | 88 | 0.0 | 6.0 | 0.00 | 0.00 | 0.00 | 56 | 1007.9 |
| 20260510180644 | 75 | 88 | 0.0 | 4.0 | 0.00 | 0.00 | 0.00 | 57 | 1007.9 |
| 20260510180124 | 75 | 90 | 0.0 | 5.0 | 0.00 | 0.00 | 0.00 | 56 | 1007.9 |
| 20260510175626 | 75 | 91 | 4.0 | 6.0 | 0.00 | 0.00 | 0.00 | 57 | 1007.8 |
| 20260510175119 | 75 | 93 | 1.0 | 6.0 | 0.00 | 0.00 | 0.00 | 58 | 1007.8 |
| 20260510174714 | 74 | 87 | 0.0 | 5.0 | 0.00 | 0.00 | 0.00 | 59 | 1007.8 |
| 20260510174132 | 74 | 88 | 0.0 | 6.0 | 0.00 | 0.00 | 0.00 | 57 | 1007.7 |
| 20260510173627 | 73 | 88 | 1.0 | 6.0 | 0.00 | 0.00 | 0.00 | 60 | 1007.7 |
| 20260510173130 | 73 | 88 | 0.0 | 1.0 | 0.00 | 0.00 | 0.00 | 59 | 1007.7 |
| 20260510172625 | 73 | 88 | 0.0 | 6.0 | 0.00 | 0.00 | 0.00 | 61 | 1007.8 |
| 20260510172121 | 72 | 88 | 4.0 | 6.0 | 0.00 | 0.00 | 0.00 | 62 | 1007.8 |
| 20260510171615 | 71 | 86 | 0.0 | 6.0 | 0.00 | 0.00 | 0.00 | 63 | 1007.8 |
| 20260510171131 | 71 | 116 | 1.0 | 5.0 | 0.00 | 0.00 | 0.00 | 63 | 1007.7 |
| 20260510170627 | 71 | 116 | 0.0 | 4.0 | 0.00 | 0.00 | 0.00 | 64 | 1007.7 |
| 20260510170122 | 70 | 116 | 1.0 | 4.0 | 0.00 | 0.00 | 0.00 | 66 | 1007.7 |
| 20260510165637 | 69 | 123 | 0.0 | 0.0 | 0.00 | 0.00 | 0.00 | 66 | 1007.7 |
| 20260510165150 | 69 | 123 | 0.0 | 0.0 | 0.00 | 0.00 | 0.00 | 65 | 1007.7 |
| 20260510164635 | 68 | 123 | 0.0 | 6.0 | 0.00 | 0.00 | 0.00 | 68 | 1007.7 |
| 20260510164152 | 68 | 123 | 0.0 | 6.0 | 0.00 | 0.00 | 0.00 | 70 | 1007.7 |
| 20260510163630 | 67 | 146 | 0.0 | 4.0 | 0.00 | 0.00 | 0.00 | 72 | 1007.7 |
| 20260510163124 | 66 | 252 | 0.0 | 0.0 | 0.00 | 0.00 | 0.00 | 71 | 1007.7 |
| 20260510162639 | 66 | 251 | 0.0 | 0.0 | 0.00 | 0.00 | 0.00 | 71 | 1007.7 |
| 20260510162113 | 66 | 251 | 0.0 | 0.0 | 0.00 | 0.00 | 0.00 | 74 | 1007.7 |
| 20260510161653 | 66 | 252 | 0.0 | 3.0 | 0.00 | 0.00 | 0.00 | 76 | 1007.7 |
| 20260510161205 | 65 | 261 | 0.0 | 3.0 | 0.00 | 0.00 | 0.00 | 78 | 1007.7 |
| 20260510160645 | 64 | 250 | 0.0 | 0.0 | 0.00 | 0.00 | 0.00 | 79 | 1007.7 |
| 20260510160130 | 63 | 250 | 0.0 | 1.0 | 0.00 | 0.00 | 0.00 | 80 | 1007.7 |
| 20260510155625 | 62 | 249 | 0.0 | 1.0 | 0.00 | 0.00 | 0.00 | 81 | 1007.6 |
| 20260510155120 | 62 | 249 | 0.0 | 0.0 | 0.00 | 0.00 | 0.00 | 82 | 1007.6 |
| 20260510154615 | 62 | 257 | 0.0 | 0.0 | 0.00 | 0.00 | 0.00 | 81 | 1007.6 |
| 20260510154132 | 61 | 257 | 0.0 | 1.0 | 0.00 | 0.00 | 0.00 | 83 | 1007.7 |
| 20260510153622 | 61 | 257 | 0.0 | 1.0 | 0.00 | 0.00 | 0.00 | 83 | 1007.7 |
| 20260510153131 | 61 | 82 | 0.0 | 0.0 | 0.00 | 0.00 | 0.00 | 84 | 1007.7 |
| 20260510152649 | 61 | 82 | 0.0 | 0.0 | 0.00 | 0.00 | 0.00 | 85 | 1007.6 |
| 20260510152123 | 61 | 82 | 0.0 | 0.0 | 0.00 | 0.00 | 0.00 | 86 | 1007.6 |
| 20260510151618 | 61 | 82 | 0.0 | 0.0 | 0.00 | 0.00 | 0.00 | 86 | 1007.6 |
| 20260510151155 | 60 | 82 | 0.0 | 2.0 | 0.00 | 0.00 | 0.00 | 87 | 1007.6 |
| 20260510150629 | 60 | 74 | 0.0 | 2.0 | 0.00 | 0.00 | 0.00 | 87 | 1007.6 |
| 20260510150125 | 60 | 74 | 0.0 | 0.0 | 0.00 | 0.00 | 0.00 | 88 | 1007.6 |
| 20260510145620 | 60 | 74 | 0.0 | 0.0 | 0.00 | 0.00 | 0.00 | 88 | 1007.5 |
| 20260510145135 | 60 | 74 | 0.0 | 0.0 | 0.00 | 0.00 | 0.00 | 88 | 1007.5 |
| 20260510144631 | 60 | 74 | 0.0 | 0.0 | 0.00 | 0.00 | 0.00 | 88 | 1007.5 |
| 20260510144129 | 59 | 74 | 0.0 | 0.0 | 0.00 | 0.00 | 0.00 | 89 | 1007.2 |
| 20260510143644 | 59 | 74 | 0.0 | 0.0 | 0.00 | 0.00 | 0.00 | 89 | 1007.2 |
| 20260510143238 | 59 | 74 | 0.0 | 0.0 | 0.00 | 0.00 | 0.00 | 89 | 1007.2 |
| 20260510142630 | 59 | 74 | 0.0 | 4.0 | 0.00 | 0.00 | 0.00 | 90 | 1007.3 |
| 20260510142113 | 59 | 74 | 0.0 | 4.0 | 0.00 | 0.00 | 0.00 | 90 | 1007.3 |
| 20260510141611 | 59 | 74 | 0.0 | 4.0 | 0.00 | 0.00 | 0.00 | 90 | 1007.3 |
| 20260510141131 | 58 | 74 | 0.0 | 4.0 | 0.00 | 0.00 | 0.00 | 90 | 1007.2 |
| 20260510140626 | 58 | 67 | 0.0 | 0.0 | 0.00 | 0.00 | 0.00 | 91 | 1007.2 |
| 20260510140243 | 58 | 67 | 0.0 | 0.0 | 0.00 | 0.00 | 0.00 | 91 | 1007.2 |
| 20260510135633 | 58 | 67 | 0.0 | 3.0 | 0.00 | 0.00 | 0.00 | 91 | 1007.1 |
| 20260510135133 | 58 | 67 | 1.0 | 3.0 | 0.00 | 0.00 | 0.00 | 91 | 1007.1 |
| 20260510134626 | 58 | 67 | 0.0 | 0.0 | 0.00 | 0.00 | 0.00 | 91 | 1007.1 |
| 20260510134128 | 58 | 67 | 0.0 | 0.0 | 0.00 | 0.00 | 0.00 | 91 | 1007.0 |
| 20260510133628 | 58 | 67 | 0.0 | 1.0 | 0.00 | 0.00 | 0.00 | 92 | 1007.0 |
| 20260510133114 | 58 | 67 | 0.0 | 1.0 | 0.00 | 0.00 | 0.00 | 92 | 1007.0 |
| 20260510132629 | 58 | 67 | 0.0 | 3.0 | 0.00 | 0.00 | 0.00 | 92 | 1007.0 |
| 20260510132123 | 58 | 67 | 0.0 | 3.0 | 0.00 | 0.00 | 0.00 | 92 | 1007.0 |
| 20260510131618 | 58 | 67 | 0.0 | 0.0 | 0.00 | 0.00 | 0.00 | 92 | 1007.0 |
| 20260510131113 | 58 | 67 | 0.0 | 0.0 | 0.00 | 0.00 | 0.00 | 92 | 1006.8 |
| 20260510130636 | 58 | 67 | 0.0 | 3.0 | 0.00 | 0.00 | 0.00 | 92 | 1006.8 |
| 20260510130121 | 58 | 71 | 0.0 | 3.0 | 0.00 | 0.00 | 0.00 | 92 | 1006.8 |
| 20260510125616 | 58 | 70 | 0.0 | 2.0 | 0.00 | 0.00 | 0.00 | 92 | 1006.7 |
| 20260510125132 | 58 | 70 | 0.0 | 2.0 | 0.00 | 0.00 | 0.00 | 92 | 1006.7 |
| 20260510124649 | 58 | 70 | 0.0 | 0.0 | 0.00 | 0.00 | 0.00 | 92 | 1006.7 |
| 20260510124122 | 58 | 70 | 0.0 | 0.0 | 0.00 | 0.00 | 0.00 | 92 | 1006.8 |
| 20260510123624 | 58 | 70 | 0.0 | 0.0 | 0.00 | 0.00 | 0.00 | 92 | 1006.8 |
| 20260510123119 | 57 | 70 | 0.0 | 4.0 | 0.00 | 0.00 | 0.00 | 92 | 1006.8 |
| 20260510122613 | 57 | 69 | 0.0 | 4.0 | 0.00 | 0.00 | 0.00 | 92 | 1006.8 |
| 20260510122131 | 57 | 67 | 0.0 | 0.0 | 0.00 | 0.00 | 0.00 | 92 | 1006.8 |
| 20260510121619 | 57 | 67 | 0.0 | 0.0 | 0.00 | 0.00 | 0.00 | 92 | 1006.8 |
| 20260510121129 | 57 | 67 | 0.0 | 0.0 | 0.00 | 0.00 | 0.00 | 92 | 1006.9 |
| 20260510120644 | 57 | 67 | 0.0 | 0.0 | 0.00 | 0.00 | 0.00 | 92 | 1006.9 |
| 20260510120118 | 57 | 67 | 0.0 | 0.0 | 0.00 | 0.00 | 0.00 | 92 | 1006.9 |
| 20260510115614 | 57 | 67 | 0.0 | 0.0 | 0.00 | 0.00 | 0.00 | 92 | 1006.9 |
| 20260510115112 | 57 | 67 | 0.0 | 0.0 | 0.00 | 0.00 | 0.00 | 92 | 1006.9 |
| 20260510114611 | 57 | 67 | 0.0 | 0.0 | 0.00 | 0.00 | 0.00 | 92 | 1006.9 |
| 20260510114106 | 57 | 67 | 0.0 | 0.0 | 0.00 | 0.00 | 0.00 | 92 | 1006.8 |
| 20260510113623 | 57 | 67 | 0.0 | 0.0 | 0.00 | 0.00 | 0.00 | 92 | 1006.8 |
| 20260510113118 | 57 | 67 | 0.0 | 0.0 | 0.00 | 0.00 | 0.00 | 92 | 1006.8 |
| 20260510112610 | 58 | 67 | 0.0 | 0.0 | 0.00 | 0.00 | 0.00 | 92 | 1006.8 |
| 20260510112205 | 58 | 67 | 0.0 | 0.0 | 0.00 | 0.00 | 0.00 | 92 | 1006.8 |
| 20260510111619 | 58 | 67 | 0.0 | 0.0 | 0.00 | 0.00 | 0.00 | 92 | 1006.8 |
| 20260510111104 | 58 | 67 | 0.0 | 0.0 | 0.00 | 0.00 | 0.00 | 92 | 1006.7 |
| 20260510110701 | 58 | 67 | 0.0 | 0.0 | 0.00 | 0.00 | 0.00 | 92 | 1006.7 |
| 20260510110120 | 58 | 67 | 0.0 | 0.0 | 0.00 | 0.00 | 0.00 | 92 | 1006.7 |
| 20260510105607 | 58 | 67 | 0.0 | 0.0 | 0.00 | 0.00 | 0.00 | 92 | 1006.8 |
| 20260510105124 | 58 | 67 | 0.0 | 0.0 | 0.00 | 0.00 | 0.00 | 92 | 1006.8 |
| 20260510104619 | 58 | 67 | 0.0 | 0.0 | 0.00 | 0.00 | 0.00 | 92 | 1006.8 |
| 20260510104114 | 58 | 67 | 0.0 | 2.0 | 0.00 | 0.00 | 0.00 | 92 | 1006.7 |
| 20260510103612 | 58 | 67 | 0.0 | 2.0 | 0.00 | 0.00 | 0.00 | 92 | 1006.7 |
| 20260510103111 | 58 | 67 | 0.0 | 0.0 | 0.00 | 0.00 | 0.00 | 92 | 1006.7 |
| 20260510102647 | 58 | 66 | 0.0 | 0.0 | 0.00 | 0.00 | 0.00 | 92 | 1006.7 |
| 20260510102134 | 58 | 66 | 0.0 | 0.0 | 0.00 | 0.00 | 0.00 | 92 | 1006.7 |
| 20260510101618 | 58 | 66 | 0.0 | 0.0 | 0.00 | 0.00 | 0.00 | 92 | 1006.7 |
| 20260510101124 | 58 | 67 | 0.0 | 0.0 | 0.00 | 0.00 | 0.00 | 92 | 1006.9 |
| 20260510100619 | 58 | 67 | 0.0 | 0.0 | 0.00 | 0.00 | 0.00 | 92 | 1006.9 |
| 20260510100113 | 58 | 67 | 0.0 | 0.0 | 0.00 | 0.00 | 0.00 | 92 | 1006.9 |
| 20260510095631 | 58 | 66 | 0.0 | 0.0 | 0.00 | 0.00 | 0.00 | 92 | 1007.0 |
| 20260510095106 | 58 | 66 | 0.0 | 0.0 | 0.00 | 0.00 | 0.00 | 92 | 1007.0 |
| 20260510094604 | 58 | 67 | 0.0 | 0.0 | 0.00 | 0.00 | 0.00 | 92 | 1007.0 |
| 20260510094122 | 58 | 66 | 0.0 | 0.0 | 0.00 | 0.00 | 0.00 | 92 | 1007.0 |
| 20260510093617 | 58 | 67 | 0.0 | 0.0 | 0.00 | 0.00 | 0.00 | 92 | 1007.0 |
| 20260510093113 | 58 | 67 | 0.0 | 0.0 | 0.00 | 0.00 | 0.00 | 92 | 1007.0 |
| 20260510092628 | 58 | 67 | 0.0 | 4.0 | 0.00 | 0.00 | 0.00 | 92 | 1007.0 |
| 20260510092151 | 58 | 67 | 1.0 | 4.0 | 0.00 | 0.00 | 0.00 | 92 | 1007.0 |
| 20260510091626 | 58 | 59 | 0.0 | 0.0 | 0.00 | 0.00 | 0.00 | 92 | 1007.0 |
| 20260510091110 | 59 | 59 | 0.0 | 0.0 | 0.00 | 0.00 | 0.00 | 92 | 1007.0 |
| 20260510090608 | 59 | 59 | 0.0 | 0.0 | 0.00 | 0.00 | 0.00 | 92 | 1007.0 |
| 20260510090106 | 59 | 59 | 0.0 | 0.0 | 0.00 | 0.00 | 0.00 | 92 | 1007.0 |
| 20260510085625 | 59 | 59 | 0.0 | 0.0 | 0.00 | 0.00 | 0.00 | 92 | 1007.0 |
| 20260510085140 | 59 | 59 | 0.0 | 0.0 | 0.00 | 0.00 | 0.00 | 92 | 1007.0 |
| 20260510084617 | 59 | 59 | 0.0 | 0.0 | 0.00 | 0.00 | 0.00 | 92 | 1007.0 |
| 20260510084114 | 58 | 59 | 0.0 | 0.0 | 0.00 | 0.00 | 0.00 | 92 | 1007.0 |
| 20260510083613 | 58 | 59 | 0.0 | 0.0 | 0.00 | 0.00 | 0.00 | 92 | 1007.0 |
| 20260510083126 | 58 | 59 | 0.0 | 0.0 | 0.00 | 0.00 | 0.00 | 92 | 1007.0 |
| 20260510082718 | 58 | 59 | 0.0 | 0.0 | 0.00 | 0.00 | 0.00 | 92 | 1007.1 |
| 20260510082115 | 58 | 59 | 0.0 | 0.0 | 0.00 | 0.00 | 0.00 | 92 | 1007.1 |
| 20260510081609 | 58 | 59 | 0.0 | 0.0 | 0.00 | 0.00 | 0.00 | 92 | 1007.1 |
| 20260510081125 | 58 | 59 | 0.0 | 0.0 | 0.00 | 0.00 | 0.00 | 92 | 1007.1 |
| 20260510080656 | 58 | 59 | 0.0 | 0.0 | 0.00 | 0.00 | 0.00 | 92 | 1007.1 |
| 20260510080126 | 59 | 59 | 0.0 | 0.0 | 0.00 | 0.00 | 0.00 | 92 | 1007.1 |
| 20260510075613 | 59 | 59 | 0.0 | 0.0 | 0.00 | 0.00 | 0.00 | 92 | 1007.2 |
| 20260510075128 | 59 | 59 | 0.0 | 0.0 | 0.00 | 0.00 | 0.00 | 92 | 1007.2 |
| 20260510074634 | 59 | 59 | 0.0 | 0.0 | 0.00 | 0.00 | 0.00 | 92 | 1007.2 |
| 20260510074123 | 59 | 59 | 0.0 | 0.0 | 0.00 | 0.00 | 0.00 | 91 | 1007.4 |
| 20260510073617 | 58 | 59 | 0.0 | 0.0 | 0.00 | 0.00 | 0.00 | 91 | 1007.4 |
| 20260510073111 | 58 | 59 | 0.0 | 0.0 | 0.00 | 0.00 | 0.00 | 91 | 1007.4 |
| 20260510072605 | 58 | 59 | 0.0 | 0.0 | 0.00 | 0.00 | 0.00 | 91 | 1007.4 |
| 20260510072122 | 58 | 59 | 0.0 | 0.0 | 0.00 | 0.00 | 0.00 | 91 | 1007.4 |
| 20260510071621 | 58 | 59 | 0.0 | 0.0 | 0.00 | 0.00 | 0.00 | 91 | 1007.4 |
| 20260510071136 | 58 | 59 | 0.0 | 0.0 | 0.00 | 0.00 | 0.00 | 91 | 1007.5 |
| 20260510070629 | 58 | 59 | 0.0 | 0.0 | 0.00 | 0.00 | 0.00 | 91 | 1007.5 |
| 20260510070123 | 58 | 59 | 0.0 | 0.0 | 0.00 | 0.00 | 0.00 | 91 | 1007.5 |
| 20260510065636 | 58 | 59 | 0.0 | 0.0 | 0.00 | 0.00 | 0.00 | 91 | 1007.4 |
| 20260510065109 | 58 | 59 | 0.0 | 0.0 | 0.00 | 0.00 | 0.00 | 91 | 1007.4 |
| 20260510064610 | 58 | 59 | 0.0 | 4.0 | 0.00 | 0.00 | 0.00 | 91 | 1007.4 |
| 20260510064129 | 58 | 59 | 0.0 | 4.0 | 0.00 | 0.00 | 0.00 | 91 | 1007.4 |
| 20260510063622 | 58 | 261 | 0.0 | 1.0 | 0.00 | 0.00 | 0.00 | 91 | 1007.4 |
| 20260510063136 | 57 | 261 | 0.0 | 0.0 | 0.00 | 0.00 | 0.00 | 91 | 1007.4 |
| 20260510062629 | 57 | 261 | 0.0 | 0.0 | 0.00 | 0.00 | 0.00 | 90 | 1007.4 |
| 20260510062154 | 57 | 261 | 0.0 | 0.0 | 0.00 | 0.00 | 0.00 | 90 | 1007.4 |
| 20260510061632 | 57 | 261 | 0.0 | 0.0 | 0.00 | 0.00 | 0.00 | 90 | 1007.4 |
| 20260510061116 | 57 | 261 | 0.0 | 0.0 | 0.00 | 0.00 | 0.00 | 90 | 1007.4 |
| 20260510060612 | 56 | 261 | 0.0 | 0.0 | 0.00 | 0.00 | 0.00 | 90 | 1007.4 |
| 20260510060111 | 56 | 261 | 0.0 | 0.0 | 0.00 | 0.00 | 0.00 | 89 | 1007.4 |
| 20260510055607 | 56 | 261 | 0.0 | 0.0 | 0.00 | 0.00 | 0.00 | 89 | 1007.5 |
| 20260510055124 | 56 | 261 | 0.0 | 0.0 | 0.00 | 0.00 | 0.00 | 89 | 1007.5 |
| 20260510054619 | 56 | 261 | 0.0 | 0.0 | 0.00 | 0.00 | 0.00 | 89 | 1007.5 |
| 20260510054114 | 56 | 261 | 0.0 | 0.0 | 0.00 | 0.00 | 0.00 | 89 | 1007.6 |
| 20260510053613 | 57 | 261 | 0.0 | 0.0 | 0.00 | 0.00 | 0.00 | 89 | 1007.6 |
| 20260510053112 | 57 | 261 | 0.0 | 0.0 | 0.00 | 0.00 | 0.00 | 88 | 1007.6 |
| 20260510052607 | 57 | 261 | 0.0 | 0.0 | 0.00 | 0.00 | 0.00 | 88 | 1007.4 |
| 20260510052203 | 57 | 261 | 0.0 | 0.0 | 0.00 | 0.00 | 0.00 | 88 | 1007.4 |
| 20260510051723 | 57 | 261 | 0.0 | 0.0 | 0.00 | 0.00 | 0.00 | 88 | 1007.4 |
| 20260510051109 | 57 | 261 | 0.0 | 0.0 | 0.00 | 0.00 | 0.00 | 88 | 1007.5 |
| 20260510050625 | 58 | 261 | 0.0 | 0.0 | 0.00 | 0.00 | 0.00 | 88 | 1007.5 |
| 20260510050119 | 58 | 261 | 0.0 | 0.0 | 0.00 | 0.00 | 0.00 | 88 | 1007.5 |
| 20260510045615 | 58 | 261 | 0.0 | 0.0 | 0.00 | 0.00 | 0.00 | 88 | 1007.4 |
| 20260510045109 | 58 | 261 | 0.0 | 0.0 | 0.00 | 0.00 | 0.00 | 88 | 1007.4 |
| 20260510044624 | 58 | 261 | 0.0 | 0.0 | 0.00 | 0.00 | 0.00 | 88 | 1007.4 |
| 20260510044134 | 58 | 261 | 0.0 | 0.0 | 0.00 | 0.00 | 0.00 | 87 | 1007.2 |
| 20260510043623 | 58 | 261 | 0.0 | 0.0 | 0.00 | 0.00 | 0.00 | 87 | 1007.2 |
| 20260510043102 | 58 | 261 | 0.0 | 0.0 | 0.00 | 0.00 | 0.00 | 87 | 1007.2 |
| 20260510042623 | 58 | 261 | 0.0 | 0.0 | 0.00 | 0.00 | 0.00 | 87 | 1007.1 |
| 20260510042117 | 59 | 261 | 0.0 | 0.0 | 0.00 | 0.00 | 0.00 | 87 | 1007.1 |
| 20260510041709 | 59 | 261 | 0.0 | 0.0 | 0.00 | 0.00 | 0.00 | 87 | 1007.1 |
| 20260510041130 | 59 | 261 | 0.0 | 0.0 | 0.00 | 0.00 | 0.00 | 86 | 1007.0 |
| 20260510040635 | 59 | 261 | 0.0 | 0.0 | 0.00 | 0.00 | 0.00 | 86 | 1007.0 |
| 20260510040109 | 59 | 261 | 0.0 | 0.0 | 0.00 | 0.00 | 0.00 | 86 | 1007.0 |
| 20260510035604 | 59 | 261 | 0.0 | 0.0 | 0.00 | 0.00 | 0.00 | 85 | 1006.7 |
| 20260510035140 | 59 | 261 | 0.0 | 0.0 | 0.00 | 0.00 | 0.00 | 85 | 1006.7 |
| 20260510034638 | 60 | 261 | 0.0 | 0.0 | 0.00 | 0.00 | 0.00 | 84 | 1006.7 |
| 20260510034112 | 60 | 261 | 0.0 | 0.0 | 0.00 | 0.00 | 0.00 | 84 | 1006.6 |
| 20260510033611 | 60 | 261 | 0.0 | 0.0 | 0.00 | 0.00 | 0.00 | 84 | 1006.6 |
| 20260510033129 | 60 | 261 | 0.0 | 0.0 | 0.00 | 0.00 | 0.00 | 83 | 1006.6 |
| 20260510032624 | 60 | 261 | 0.0 | 0.0 | 0.00 | 0.00 | 0.00 | 82 | 1006.5 |
| 20260510032120 | 60 | 261 | 0.0 | 0.0 | 0.00 | 0.00 | 0.00 | 81 | 1006.5 |
| 20260510031614 | 60 | 261 | 0.0 | 0.0 | 0.00 | 0.00 | 0.00 | 81 | 1006.5 |
| 20260510031204 | 61 | 261 | 0.0 | 0.0 | 0.00 | 0.00 | 0.00 | 81 | 1006.3 |
| 20260510030628 | 61 | 261 | 0.0 | 0.0 | 0.00 | 0.00 | 0.00 | 80 | 1006.3 |
| 20260510030123 | 61 | 261 | 0.0 | 0.0 | 0.00 | 0.00 | 0.00 | 80 | 1006.3 |
| 20260510025651 | 61 | 261 | 0.0 | 0.0 | 0.00 | 0.00 | 0.00 | 80 | 1006.1 |
| 20260510025119 | 62 | 261 | 0.0 | 0.0 | 0.00 | 0.00 | 0.00 | 80 | 1006.1 |
| 20260510024634 | 62 | 261 | 0.0 | 0.0 | 0.00 | 0.00 | 0.00 | 79 | 1006.1 |
| 20260510024109 | 62 | 261 | 0.0 | 0.0 | 0.00 | 0.00 | 0.00 | 79 | 1006.0 |
| 20260510023625 | 62 | 261 | 0.0 | 0.0 | 0.00 | 0.00 | 0.00 | 78 | 1006.0 |
| 20260510023119 | 63 | 261 | 0.0 | 2.0 | 0.00 | 0.00 | 0.00 | 77 | 1006.0 |
| 20260510022614 | 63 | 261 | 0.0 | 3.0 | 0.00 | 0.00 | 0.00 | 76 | 1006.0 |
| 20260510022110 | 64 | 261 | 0.0 | 3.0 | 0.00 | 0.00 | 0.00 | 75 | 1006.0 |
| 20260510021604 | 64 | 261 | 0.0 | 1.0 | 0.00 | 0.00 | 0.00 | 73 | 1006.0 |
| 20260510021121 | 65 | 261 | 0.0 | 1.0 | 0.00 | 0.00 | 0.00 | 72 | 1005.8 |
| 20260510020616 | 66 | 261 | 0.0 | 0.0 | 0.00 | 0.00 | 0.00 | 71 | 1005.8 |
| 20260510020108 | 66 | 261 | 0.0 | 4.0 | 0.00 | 0.00 | 0.00 | 71 | 1005.8 |
| 20260510015629 | 66 | 261 | 0.0 | 4.0 | 0.00 | 0.00 | 0.00 | 71 | 1005.6 |
| 20260510015116 | 66 | 267 | 0.0 | 3.0 | 0.00 | 0.00 | 0.00 | 71 | 1005.6 |
| 20260510014716 | 66 | 267 | 0.0 | 3.0 | 0.00 | 0.00 | 0.00 | 71 | 1005.6 |
| 20260510014125 | 66 | 267 | 1.0 | 6.0 | 0.00 | 0.00 | 0.00 | 72 | 1005.6 |
| 20260510013623 | 66 | 267 | 0.0 | 9.0 | 0.00 | 0.00 | 0.00 | 72 | 1005.6 |
| 20260510013117 | 67 | 288 | 2.0 | 10.0 | 0.00 | 0.00 | 0.00 | 70 | 1005.6 |
| 20260510012615 | 67 | 275 | 2.0 | 10.0 | 0.00 | 0.00 | 0.00 | 68 | 1005.5 |
| 20260510012134 | 68 | 245 | 1.0 | 7.0 | 0.00 | 0.00 | 0.00 | 67 | 1005.5 |
| 20260510011607 | 69 | 281 | 3.0 | 6.0 | 0.00 | 0.00 | 0.00 | 65 | 1005.5 |
| 20260510011107 | 69 | 243 | 2.0 | 4.0 | 0.00 | 0.00 | 0.00 | 64 | 1005.5 |
| 20260510010622 | 70 | 240 | 0.0 | 6.0 | 0.00 | 0.00 | 0.00 | 64 | 1005.5 |
| 20260510010118 | 70 | 234 | 1.0 | 7.0 | 0.00 | 0.00 | 0.00 | 63 | 1005.5 |
| 20260510005616 | 72 | 291 | 3.0 | 7.0 | 0.00 | 0.00 | 0.00 | 61 | 1005.5 |
| 20260510005111 | 72 | 279 | 0.0 | 6.0 | 0.00 | 0.00 | 0.00 | 61 | 1005.5 |
| 20260510004614 | 73 | 284 | 2.0 | 6.0 | 0.00 | 0.00 | 0.00 | 61 | 1005.5 |
| 20260510004116 | 73 | 277 | 0.0 | 6.0 | 0.00 | 0.00 | 0.00 | 60 | 1005.5 |
| 20260510003605 | 74 | 281 | 2.0 | 5.0 | 0.00 | 0.00 | 0.00 | 58 | 1005.5 |
| 20260510003141 | 74 | 240 | 0.0 | 3.0 | 0.00 | 0.00 | 0.00 | 57 | 1005.5 |
| 20260510002615 | 74 | 261 | 0.0 | 4.0 | 0.00 | 0.00 | 0.00 | 58 | 1005.6 |
| 20260510002113 | 74 | 284 | 0.0 | 5.0 | 0.00 | 0.00 | 0.00 | 59 | 1005.6 |
| 20260510001610 | 75 | 282 | 2.0 | 9.0 | 0.00 | 0.00 | 0.00 | 57 | 1005.6 |
| 20260510001108 | 77 | 248 | 5.0 | 7.0 | 0.00 | 0.00 | 0.00 | 52 | 1005.5 |
| 20260510000604 | 79 | 256 | 0.0 | 5.0 | 0.00 | 0.00 | 0.00 | 49 | 1005.5 |
| 20260510000121 | 80 | 250 | 0.0 | 5.0 | 0.00 | 0.00 | 0.00 | 49 | 1005.5 |
| 20260509235615 | 81 | 246 | 1.0 | 5.0 | 0.00 | 0.00 | 0.00 | 46 | 1005.5 |
| 20260509235113 | 81 | 225 | 0.0 | 0.0 | 0.00 | 0.00 | 0.00 | 47 | 1005.5 |
| 20260509234606 | 81 | 88 | 0.0 | 0.0 | 0.00 | 0.00 | 0.00 | 47 | 1005.5 |
| 20260509234136 | 82 | 84 | 0.0 | 1.0 | 0.00 | 0.00 | 0.00 | 47 | 1005.5 |
| 20260509233612 | 82 | 84 | 0.0 | 1.0 | 0.00 | 0.00 | 0.00 | 46 | 1005.5 |
| 20260509233110 | 82 | 84 | 0.0 | 0.0 | 0.00 | 0.00 | 0.00 | 47 | 1005.5 |
| 20260509232606 | 82 | 84 | 0.0 | 2.0 | 0.00 | 0.00 | 0.00 | 48 | 1005.6 |
| 20260509232122 | 82 | 84 | 0.0 | 2.0 | 0.00 | 0.00 | 0.00 | 47 | 1005.6 |
| 20260509231637 | 82 | 84 | 0.0 | 3.0 | 0.00 | 0.00 | 0.00 | 49 | 1005.6 |